Regional Weather Roundup
Issued by NWS

Home | Current Version | Previous Version | Graphics & Text | Print | Product List | Glossary On
Versions: 1 2 3 4 5 6 7 8 9 10 11 12 13 14 15 16 17 18 19 20 21 22 23 24 25 26 27 28 29 30 31 32 33 34 35 36 37 38 39 40 41 42 43 44 45 46 47 48 49 50
000
ASUS43 KIND 200609
RWRIN

WEATHER ROUNDUP FOR INDIANA
NATIONAL WEATHER SERVICE INDIANAPOLIS IN
100 AM EST TUE FEB 20 2018

NOTE: "FAIR" INDICATES FEW OR NO CLOUDS BELOW 12,000 FEET WITH NO
SIGNIFICANT WEATHER AND/OR OBSTRUCTIONS TO VISIBILITY.

* - STATION DOES NOT REPORT WEATHER SUCH AS PRECIPITATION OR FOG.

+ - STATION NOT QUALITY CONTROLLED BY THE NATIONAL WEATHER SERVICE.
    USE DATA WITH CAUTION...ESPECIALLY DEWPOINT AND RELATIVE
    HUMIDITY OBSERVATIONS.

INZ001>003-010>013-019-020-200700-
NORTHWEST INDIANA

CITY           SKY/WX    TMP DP  RH WIND       PRES   REMARKS
GARY /AIRPORT/ HVY RAIN  61  61 100 SW5       29.87R
LA PORTE +     HVY RAIN  58  56  96 S9        29.89S
6HR MIN TEMP:  54; 6HR MAX TEMP:  61; 6HR PCP:  0.18;

MICHIGAN CITY+ HVY RAIN  59  59 100 S5        29.89S
MONTICELLO +   CLOUDY    63  56  80 S21G28    29.91R
6HR MIN TEMP:  59; 6HR MAX TEMP:  63; 6HR PCP:  0.06;

RENSSELAER +   LGT RAIN  61  54  77 S25G38    29.88R
VALPARAISO     RAIN      60  58  92 SW15G24   29.88S FOG
6HR MIN TEMP:  58; 6HR MAX TEMP:  63; 6HR PCP:  0.59;


$$

LMZ046-743>745-200700-
SOUTHERN LAKE MICHIGAN

STATION/POSITION TIME  TEMP    WIND        PRES    WAVE
                       AIR SEA DIR/SP/G            HT
                 (UTC) (F)     (DEG/KT/KT) (MB)    (FT)
BURNS HARBOR     0540   58     220/  6/ 10 1012.2R
MICHIGAN CITY    0540   59     180/ 13/ 15   N/A

$$

INZ004-005-014>016-021>024-200700-
NORTH CENTRAL INDIANA

CITY           SKY/WX    TMP DP  RH WIND       PRES   REMARKS
GOSHEN         LGT RAIN  55  54  96 CALM      29.92R VSB 3/4
6HR MIN TEMP:  54; 6HR MAX TEMP:  60; 6HR PCP:  0.54;

LOGANSPORT +   MOCLDY    59  54  82 S18G24    29.93R
PERU/GRISSOM   MOCLDY    61  61 100 S18G26    29.92S
6HR MIN TEMP:  57; 6HR MAX TEMP:  61; 6HR PCP:  0.07;

ROCHESTER +    CLOUDY    63  55  77 S16G26    29.91R
SOUTH BEND     RAIN      58  57  97 S9        29.90F FOG
6HR MIN TEMP:  55; 6HR MAX TEMP:  58; 6HR PCP:  0.88;

WARSAW +       CLOUDY    61  54  77 S7G23     29.91R

$$

INZ006>009-017-018-025>027-200700-
NORTHEAST INDIANA

CITY           SKY/WX    TMP DP  RH WIND       PRES   REMARKS
AUBURN +       CLOUDY    59  54  82 S7        29.95F
FORT WAYNE     CLOUDY    61  54  77 S21       29.95S
6HR MIN TEMP:  57; 6HR MAX TEMP:  61; 6HR PCP:  0.15;

HUNTINGTON +   MOCLDY    59  54  82 S10G16    29.95R
6HR MIN TEMP:  56; 6HR MAX TEMP:  59; 6HR PCP:  0.11;

KENDALLVILLE + CLOUDY    58  56  91 S12       29.93F

$$

INZ028-029-035-036-043>045-051>053-200700-
WEST CENTRAL INDIANA

CITY           SKY/WX    TMP DP  RH WIND       PRES   REMARKS
CRAWFORDSVL +  FAIR      60  56  85 S20G25    29.96R
6HR MIN TEMP:  56; 6HR MAX TEMP:  61; 6HR PCP:  0.03;

GREENCASTLE +  FAIR      64  55  72 SW13G26   29.99S
LAFAYETTE      CLOUDY    64  56  75 S13G26    29.91R
6HR MIN TEMP:  60; 6HR MAX TEMP:  64; 6HR PCP:  0.04;

TERRE HAUTE    MOCLDY    64  57  78 S16G32    29.97F
6HR MIN TEMP:  59; 6HR MAX TEMP:  65; 6HR PCP: TRACE;


$$

INZ030>032-037>040-046>048-054>057-064-065-200700-
CENTRAL INDIANA

CITY           SKY/WX    TMP DP  RH WIND       PRES   REMARKS
FRANKFORT +    MOCLDY    65  58  77 SW17G28   29.96R
6HR MIN TEMP:  60; 6HR MAX TEMP:  65; 6HR PCP:  0.05;

GREENWOOD *+   FAIR      60 -47   1 S14G20    30.03R
6HR MIN TEMP:  58; 6HR MAX TEMP:  63;

INDIANAPOLIS   MOCLDY    63  55  75 S16       30.00R
6HR MIN TEMP:  58; 6HR MAX TEMP:  64;

-EAGLE CREEK   MOCLDY    65  54  67 S10G23    29.98S
6HR MIN TEMP:  57; 6HR MAX TEMP:  66;

KOKOMO +       CLOUDY    60  54  80 S17       29.95S
6HR MIN TEMP:  57; 6HR MAX TEMP:  61; 6HR PCP:  0.05;

MARION +       FAIR      59  53  80 S18G25    29.97S
MT COMFORT *+  FAIR      61  57  88 S13       30.01S
SHELBYVILLE    FAIR      62  54  74 S16       30.03R
6HR MIN TEMP:  62; 6HR MAX TEMP:  67;

ZIONSVILLE +   MOCLDY    61  55  80 S20G29    29.98S
6HR MIN TEMP:  55; 6HR MAX TEMP:  61; 6HR PCP:  0.02;


$$

INZ033-034-041-042-049-050-058-059-200700-
EAST CENTRAL INDIANA

CITY           SKY/WX    TMP DP  RH WIND       PRES   REMARKS
MUNCIE         FAIR      63  54  72 S17G23    29.99R
6HR MIN TEMP:  61; 6HR MAX TEMP:  64; 6HR PCP:  0.01;

RICHMOND +     MOCLDY    55  54  94 S15       30.07R

$$

INZ060-061-067>069-081>083-085>088-200700-
SOUTHWEST INDIANA

CITY           SKY/WX    TMP DP  RH WIND       PRES   REMARKS
EVANSVILLE     FAIR      67  59  75 S14G28    30.04R
6HR MIN TEMP:  65; 6HR MAX TEMP:  70;

HUNTINGBURG +  FAIR      65  58  78 S16       30.05S
6HR MIN TEMP:  64; 6HR MAX TEMP:  68;

WASHINGTON +   MOCLDY    64  55  71 S15       30.03R
6HR MIN TEMP:  64; 6HR MAX TEMP:  69;


$$

INZ062-063-066-070>080-084-089>092-200700-
SOUTH CENTRAL AND SOUTHEAST INDIANA

CITY           SKY/WX    TMP DP  RH WIND       PRES   REMARKS
BATESVILLE +   CLEAR     63  55  77 MISG      30.06R
BEDFORD +      FAIR      64  54  68 S10       30.05R
BLOOMINGTON    FAIR      66  57  72 S17G31    30.03R
6HR MIN TEMP:  66; 6HR MAX TEMP:  69;

FRENCH LICK *+ FAIR      64  52  63 S12G17    30.07R
MADISON *+     FAIR      61  54  77 S8        30.11S
NORTH VERNON + FAIR      63  54  72 S12       30.08R
SEYMOUR +      FAIR      66  54  63 S12       30.06S

$$





USA.gov is the U.S. government's official web portal to all federal, state and local government web resources and services.